Wind_Speed
20 19 19 18 17 15 15 16 16 16 15 13 12 9 7 7 7 6 6 7 7 6 6 7 8 8 7 7 6 6 6 6 6 7 7 7 7 7 7 8 9 9 10 10 11 10 10 9 9
22 21 20 20 18 16 17 18 19 18 17 15 13 10 9 9 8 8 8 8 8 8 7 8 8 8 8 8 8 7 7 8 8 8 8 8 8 8 9 9 9 10 10 10 11 10 10 9 9
23 23 22 20 18 17 20 21 21 20 18 17 15 12 10 9 10 9 10 10 10 10 9 9 10 9 9 8 9 9 8 9 9 9 9 9 9 10 10 10 10 10 10 10 11 10 10 9 9
24 23 22 20 19 20 22 23 23 22 20 19 17 14 11 10 11 11 11 11 11 11 11 11 11 10 10 10 10 10 10 10 10 11 11 11 11 11 11 11 11 11 10 11 11 11 10 10 9
24 23 22 20 21 23 25 26 25 23 23 21 18 16 14 13 12 12 12 12 11 11 12 12 13 12 11 10 10 11 11 11 12 12 13 13 12 13 13 12 12 12 12 12 12 11 11 11 10
23 23 22 21 23 26 28 28 26 24 23 22 20 17 16 14 13 13 13 13 13 13 13 13 13 13 12 11 11 11 12 13 13 14 14 15 15 15 14 14 13 13 13 13 13 12 12 11 11
23 22 22 22 25 27 29 28 27 25 24 23 21 19 18 15 15 15 14 15 15 15 14 14 14 13 13 13 13 13 13 14 14 15 16 16 16 16 16 15 15 15 15 15 14 14 13 12 12
22 22 22 23 26 28 29 29 28 27 26 24 23 21 19 18 18 18 18 18 17 16 16 16 15 14 14 15 14 15 15 15 16 16 17 17 17 18 17 17 17 17 17 16 16 16 15 14 13
21 22 23 24 27 29 30 30 29 28 26 25 24 23 21 20 20 20 20 21 20 19 18 18 17 16 16 16 16 16 17 17 18 18 18 19 19 19 19 19 19 19 19 18 18 17 17 16 15
20 21 23 25 28 30 31 31 30 29 27 26 25 24 22 21 21 20 21 21 21 20 19 19 19 18 18 17 17 18 18 19 19 20 20 20 20 20 20 20 20 20 20 20 19 19 18 18 17
19 22 24 26 28 29 31 31 30 30 29 27 26 24 23 22 22 22 22 23 24 22 20 19 20 19 19 19 20 20 20 20 20 21 21 21 21 21 21 21 21 21 21 21 20 19 19 19 18
19 22 24 26 27 28 29 30 30 30 28 27 26 25 24 24 24 23 23 24 24 24 23 21 20 20 20 21 21 22 21 21 21 20 21 22 22 23 22 21 22 22 22 21 20 19 19 19 19
18 21 22 24 25 26 28 29 29 29 28 28 26 26 25 25 25 24 25 25 24 24 23 22 22 23 23 22 22 22 22 22 22 22 21 22 22 23 24 23 22 22 22 22 22 21 20 20 20
17 19 20 22 23 24 26 27 28 28 28 28 27 26 26 25 26 26 25 25 24 23 23 23 24 24 24 25 24 24 25 24 23 23 24 24 24 24 24 24 23 23 22 22 23 22 22 22 21
15 17 18 20 22 23 24 25 26 26 26 26 26 26 26 26 26 26 26 26 25 25 25 26 26 26 26 26 27 26 26 26 25 24 25 26 26 26 26 25 24 24 23 23 23 22 21 21 21
13 17 19 20 21 22 22 22 24 24 24 25 25 25 25 25 25 26 26 26 26 27 27 27 27 27 27 27 27 28 28 27 26 25 25 26 26 27 27 26 26 26 26 24 23 23 22 21 22
14 16 18 20 20 21 21 21 21 22 22 23 23 23 23 24 24 25 26 26 26 27 28 28 28 27 28 29 29 29 29 30 29 27 25 27 27 28 27 28 28 28 27 26 24 24 23 23 23
14 15 16 18 18 19 20 20 20 20 20 20 21 21 22 22 24 25 25 26 27 27 28 28 28 28 28 28 28 29 29 30 30 29 27 27 28 28 29 29 29 28 28 27 26 25 25 25 25
15 15 16 16 17 18 18 19 20 20 20 20 21 22 22 23 24 26 26 27 27 27 28 28 28 28 28 27 28 28 28 29 30 30 29 28 28 27 28 28 28 28 28 28 27 26 27 26 26
15 15 16 16 16 16 17 18 19 20 20 21 21 22 22 23 24 25 26 27 27 27 27 27 27 27 27 27 27 27 27 26 28 29 29 29 28 27 27 27 27 27 28 30 30 28 28 28 27
15 15 15 15 16 16 17 18 18 19 20 21 22 22 23 23 23 24 25 25 25 26 27 26 25 25 26 27 26 26 27 26 26 27 28 28 27 26 26 27 27 28 29 30 30 29 30 30 29
15 15 15 15 16 16 17 18 17 18 18 19 20 21 23 24 24 24 25 24 25 26 27 26 25 25 26 26 27 27 26 25 25 26 27 28 28 27 26 26 27 29 29 30 30 31 31 31 31
15 16 16 16 17 18 18 19 17 18 18 19 20 21 23 24 25 25 25 25 25 26 26 26 25 26 26 26 27 26 25 25 25 25 26 25 25 26 26 26 26 28 30 30 30 29 29 29 29
15 16 17 17 17 18 18 19 19 18 19 20 21 21 22 23 24 24 24 25 25 26 26 25 25 26 26 26 26 25 25 25 25 25 24 24 24 25 25 26 26 28 29 29 30 29 30 30 30
15 15 16 17 17 17 17 18 18 18 18 19 20 21 21 21 21 21 22 23 23 24 25 24 25 25 25 26 26 25 25 25 25 25 24 24 25 26 26 27 27 28 29 30 31 30 30 30 30
14 15 17 17 17 16 16 18 17 17 18 19 19 18 18 19 20 20 20 21 22 22 22 23 24 24 25 26 26 27 26 26 26 26 25 25 26 26 26 27 28 28 28 29 29 29 30 30 30
15 15 15 17 16 16 16 16 16 16 17 17 17 18 18 18 19 19 19 20 21 21 21 22 23 24 25 25 26 27 25 25 25 25 25 25 25 25 25 26 28 28 27 28 29 29 29 29 31
14 14 15 15 16 16 15 14 15 15 15 15 16 17 18 18 18 18 19 19 19 20 21 22 23 24 25 25 25 25 25 26 26 26 26 26 25 25 26 26 26 26 27 27 28 28 28 29 29
14 14 14 15 15 16 15 13 13 13 15 16 16 17 17 18 18 19 20 20 21 21 21 22 24 24 25 25 25 26 26 26 25 25 26 27 27 26 27 27 26 26 26 27 27 27 28 28 29
13 13 13 14 15 15 15 13 13 14 15 16 16 16 17 18 19 20 21 22 22 22 23 23 24 25 25 25 25 25 25 25 25 26 27 27 27 27 27 27 27 27 27 27 27 27 27 28 28
Wind_Direction
249 247 244 242 240 238 235 235 234 234 233 236 243 253 266 281 288 298 296 293 287 282 275 271 267 261 255 251 248 242 237 235 239 245 253 261 267 275 283 289 297 304 309 313 315 315 316 319 319
247 245 242 240 238 234 231 233 231 233 233 236 237 246 264 279 286 296 297 293 286 278 274 269 263 259 255 251 250 247 246 245 243 246 251 257 265 273 279 284 291 296 301 304 308 310 311 313 313
245 243 241 239 235 230 229 231 232 235 236 237 239 244 259 274 287 293 294 292 286 282 277 269 259 259 259 256 252 251 252 252 252 252 253 256 262 269 275 280 285 289 294 297 301 303 304 305 304
244 242 240 235 228 224 226 230 232 234 237 239 243 249 258 271 281 285 290 291 288 281 277 269 258 259 260 260 255 251 253 256 258 257 257 258 262 267 271 276 280 284 288 293 295 297 297 296 295
242 241 238 231 224 223 225 229 232 234 238 242 246 252 258 266 274 281 290 292 290 283 275 267 260 261 259 256 256 256 259 260 262 261 258 257 262 268 272 273 277 279 284 287 289 289 289 287 287
241 239 234 225 221 223 226 230 233 236 240 244 248 253 261 265 273 281 288 291 291 289 282 272 266 263 261 256 255 256 259 261 263 264 263 260 261 266 269 271 274 276 279 282 282 283 282 279 280
239 237 230 222 219 222 226 231 234 236 239 244 249 255 260 267 275 281 286 288 289 288 283 275 267 263 261 257 256 256 259 261 262 262 263 263 262 264 266 267 269 271 275 278 277 278 277 273 273
237 233 227 221 219 222 228 232 235 236 238 243 249 255 260 266 273 278 283 285 286 285 281 273 265 258 258 259 261 260 260 262 262 263 263 265 264 264 265 264 266 268 271 273 274 275 273 269 269
234 229 223 218 218 222 227 231 235 238 239 243 248 255 261 267 273 276 279 281 282 282 278 270 267 261 260 260 260 260 259 262 262 261 261 262 265 264 265 264 265 266 268 270 270 270 269 267 267
228 225 221 219 218 221 226 230 234 238 240 243 249 255 260 268 271 274 277 279 278 279 276 271 269 267 266 265 264 260 262 262 262 259 258 260 263 264 265 264 264 265 266 267 267 266 266 266 264
223 222 221 220 220 223 227 231 235 238 243 247 251 257 262 268 272 277 278 280 278 276 274 272 274 272 270 267 264 263 264 264 263 260 258 259 261 262 263 264 262 264 265 265 265 264 262 262 261
222 223 222 222 222 224 228 233 237 240 244 250 254 258 262 267 272 276 279 280 279 276 274 274 277 275 270 268 266 263 266 266 265 264 263 260 260 260 261 263 263 263 263 260 259 261 258 259 258
222 225 224 225 226 227 231 235 240 244 247 251 255 259 264 268 271 274 278 280 279 277 274 274 274 275 272 270 266 264 266 268 266 265 264 262 262 260 260 262 261 261 260 258 256 257 256 255 254
222 227 227 226 228 231 235 238 242 246 250 254 259 262 266 268 270 274 276 276 278 276 275 275 274 274 273 268 265 263 264 264 263 265 264 260 260 260 258 259 259 258 257 256 257 255 252 253 252
222 227 229 230 232 234 238 242 245 249 253 257 261 264 267 270 273 276 277 277 276 275 274 273 272 272 269 268 267 265 263 263 261 263 265 260 258 258 256 256 257 256 258 258 255 254 251 250 249
221 226 228 230 233 237 240 244 247 250 253 257 261 263 266 270 273 275 275 276 276 276 275 274 272 272 269 267 265 264 265 264 263 263 268 262 257 255 255 256 257 257 257 256 254 253 250 248 248
218 223 227 233 236 241 243 244 248 252 254 256 260 263 266 268 272 274 275 276 276 276 277 277 275 274 272 271 268 267 265 266 266 263 264 261 260 257 257 258 259 257 256 255 254 252 248 248 248
219 222 227 234 240 243 245 248 250 254 257 260 264 267 269 272 274 276 276 277 276 276 276 277 276 275 274 273 271 269 267 266 266 266 264 263 263 260 258 260 258 255 255 256 255 252 248 248 247
223 226 230 237 244 247 248 251 255 259 261 264 269 271 274 274 276 278 278 277 276 276 276 277 275 273 272 274 273 271 269 267 267 267 267 268 267 263 260 260 257 253 252 253 254 252 250 248 248
229 231 234 240 248 252 254 259 264 266 269 272 274 275 277 278 278 279 279 277 274 274 276 278 277 274 273 273 273 273 269 268 266 269 268 267 266 264 263 259 256 253 253 252 250 251 251 249 249
231 234 237 244 254 260 265 269 272 273 276 279 278 278 280 283 283 281 280 277 274 274 275 277 277 275 275 275 274 274 270 271 270 268 267 264 264 263 265 262 256 254 252 250 248 251 252 250 250
234 241 246 253 262 266 271 274 276 279 282 283 281 279 279 281 283 281 279 277 275 274 274 274 275 276 278 277 275 272 271 271 270 268 266 264 264 264 264 263 260 256 254 251 249 251 254 253 252
242 249 256 261 267 272 276 280 284 286 285 286 285 282 280 279 281 279 278 277 276 274 274 274 275 276 277 278 275 272 270 270 270 269 267 266 263 263 262 262 261 258 256 253 251 249 250 252 251
249 255 262 267 272 275 279 283 288 291 289 288 286 285 284 281 282 280 279 277 276 274 273 274 277 278 278 277 276 273 270 270 269 269 268 265 265 265 264 263 261 260 255 252 250 249 249 252 253
251 259 268 272 275 279 280 283 288 293 293 291 290 290 286 283 285 283 279 278 277 274 273 274 277 278 278 277 275 272 269 268 268 266 267 267 266 265 264 263 260 258 256 251 249 250 250 252 252
260 268 274 280 282 281 280 284 290 293 293 294 295 295 289 285 284 285 280 280 279 277 276 276 278 279 279 280 277 273 270 267 268 267 267 265 264 264 264 262 261 258 255 251 250 250 250 252 252
264 269 275 281 285 285 284 288 291 292 292 294 296 297 295 290 287 287 285 284 282 281 280 280 280 282 281 281 278 276 272 270 269 267 266 266 265 263 262 261 260 257 254 250 251 252 252 253 251
267 270 275 281 288 291 292 294 296 293 295 297 299 299 298 295 293 290 288 289 288 286 284 283 282 282 282 281 279 276 273 274 271 267 265 264 263 262 261 262 258 255 254 255 254 255 253 254 252
265 269 274 282 289 295 297 300 300 300 300 301 302 301 300 298 296 294 291 291 292 290 286 284 284 284 282 280 280 279 277 276 273 269 265 263 261 260 260 260 258 257 256 255 253 254 255 255 253
265 272 277 283 290 293 300 306 301 304 305 305 306 306 305 301 297 296 295 292 291 289 288 286 285 284 283 282 280 280 278 277 275 271 269 266 262 259 258 258 256 255 255 253 253 253 254 254 253
Height
5864 5866 5868 5869 5871 5873 5873 5873 5874 5874 5875 5876 5877 5878 5879 5881 5882 5885 5884 5883 5883 5884 5884 5884 5885 5886 5886 5886 5887 5887 5888 5889 5890 5891 5892 5893 5894 5895 5896 5897 5897 5898 5898 5898 5898 5898 5898 5898 5898
5861 5863 5865 5867 5868 5870 5871 5870 5871 5871 5873 5874 5875 5876 5877 5878 5879 5880 5881 5881 5882 5882 5882 5883 5884 5884 5884 5885 5885 5886 5887 5888 5889 5890 5891 5891 5892 5893 5894 5895 5896 5896 5897 5897 5897 5897 5897 5897 5897
5857 5859 5862 5864 5866 5868 5867 5867 5868 5869 5870 5872 5873 5874 5876 5877 5877 5878 5879 5879 5880 5881 5881 5881 5882 5882 5883 5883 5883 5884 5885 5886 5887 5888 5889 5890 5891 5892 5892 5893 5894 5894 5895 5895 5896 5896 5896 5896 5896
5854 5856 5858 5861 5863 5864 5864 5864 5865 5867 5868 5870 5871 5872 5874 5875 5876 5876 5877 5878 5878 5879 5879 5880 5880 5880 5881 5881 5881 5882 5883 5884 5885 5886 5887 5888 5888 5889 5890 5891 5892 5892 5893 5893 5894 5894 5895 5895 5895
5850 5852 5855 5857 5859 5860 5860 5860 5862 5864 5866 5867 5869 5870 5871 5873 5873 5874 5875 5876 5876 5877 5877 5877 5878 5878 5878 5878 5879 5880 5881 5881 5882 5883 5884 5885 5886 5887 5888 5888 5889 5890 5890 5891 5892 5892 5893 5893 5893
5846 5849 5852 5854 5855 5855 5856 5857 5860 5862 5864 5865 5867 5868 5869 5870 5871 5872 5873 5873 5874 5874 5874 5875 5875 5875 5875 5876 5876 5877 5878 5879 5880 5881 5881 5882 5883 5884 5885 5885 5886 5887 5888 5888 5889 5890 5890 5891 5891
5843 5845 5847 5850 5851 5852 5853 5855 5857 5859 5861 5862 5864 5866 5867 5867 5868 5869 5870 5870 5871 5871 5871 5872 5872 5872 5873 5873 5874 5874 5875 5876 5877 5877 5878 5879 5880 5881 5882 5882 5883 5884 5885 5885 5886 5887 5887 5888 5889
5839 5842 5843 5846 5847 5849 5850 5852 5854 5856 5858 5860 5861 5863 5864 5865 5865 5866 5866 5867 5867 5868 5868 5868 5869 5869 5870 5870 5871 5871 5872 5873 5874 5874 5875 5876 5877 5877 5878 5879 5880 5881 5881 5882 5883 5884 5884 5885 5886
5835 5839 5839 5842 5844 5846 5847 5849 5851 5852 5855 5857 5858 5859 5861 5861 5862 5863 5863 5863 5863 5864 5864 5864 5865 5866 5866 5867 5868 5868 5869 5870 5870 5871 5872 5873 5873 5874 5875 5875 5876 5877 5878 5878 5879 5880 5881 5882 5883
5832 5834 5836 5838 5840 5842 5843 5845 5847 5849 5851 5853 5854 5856 5857 5858 5858 5859 5859 5859 5859 5860 5860 5860 5861 5862 5863 5864 5864 5865 5865 5866 5866 5867 5868 5869 5869 5870 5871 5872 5872 5873 5874 5874 5875 5876 5877 5878 5879
5828 5830 5832 5834 5836 5838 5840 5842 5844 5846 5848 5850 5851 5852 5853 5854 5855 5855 5855 5855 5855 5856 5856 5856 5857 5857 5858 5859 5860 5860 5861 5862 5862 5863 5864 5864 5865 5866 5867 5867 5868 5869 5869 5870 5871 5872 5873 5874 5875
5825 5826 5829 5831 5833 5836 5837 5839 5841 5843 5845 5846 5847 5848 5849 5850 5851 5851 5851 5851 5851 5851 5851 5852 5852 5853 5854 5854 5855 5855 5856 5857 5858 5858 5859 5860 5861 5861 5862 5863 5863 5864 5865 5866 5866 5867 5868 5869 5871
5822 5824 5826 5829 5831 5833 5835 5836 5838 5840 5841 5843 5844 5844 5846 5846 5847 5847 5847 5847 5847 5847 5847 5847 5848 5848 5848 5849 5850 5850 5851 5852 5852 5853 5854 5855 5856 5856 5857 5858 5858 5859 5860 5861 5862 5863 5864 5865 5866
5820 5822 5824 5826 5828 5831 5833 5834 5836 5837 5838 5839 5840 5841 5841 5842 5842 5842 5842 5843 5843 5843 5842 5843 5843 5844 5844 5844 5845 5845 5846 5847 5847 5848 5848 5849 5850 5851 5851 5852 5853 5854 5854 5856 5857 5858 5859 5860 5862
5818 5821 5822 5824 5826 5828 5830 5832 5833 5834 5834 5835 5836 5836 5837 5837 5837 5837 5837 5837 5838 5838 5838 5838 5838 5838 5838 5839 5839 5840 5840 5841 5841 5842 5842 5843 5844 5845 5846 5847 5848 5848 5849 5850 5851 5852 5854 5855 5857
5816 5819 5820 5821 5823 5825 5828 5829 5829 5830 5831 5831 5831 5832 5832 5832 5832 5832 5832 5832 5832 5832 5832 5832 5832 5832 5833 5833 5833 5834 5835 5834 5834 5836 5836 5836 5837 5839 5839 5841 5842 5843 5844 5845 5846 5847 5849 5850 5852
5814 5816 5817 5819 5820 5822 5824 5825 5826 5826 5827 5827 5827 5828 5828 5828 5828 5828 5827 5827 5827 5827 5826 5826 5826 5827 5827 5827 5828 5828 5829 5829 5828 5829 5830 5830 5831 5832 5833 5834 5835 5837 5838 5839 5840 5842 5843 5845 5847
5812 5814 5815 5816 5817 5819 5820 5821 5822 5822 5823 5823 5823 5823 5823 5823 5823 5823 5822 5822 5822 5821 5820 5820 5820 5821 5821 5821 5821 5822 5822 5823 5823 5823 5824 5824 5825 5825 5826 5828 5829 5830 5832 5833 5834 5836 5838 5840 5841
5810 5812 5813 5814 5815 5816 5817 5818 5818 5818 5819 5819 5819 5819 5819 5818 5818 5817 5817 5816 5816 5816 5815 5815 5814 5814 5814 5814 5814 5815 5815 5816 5816 5816 5817 5818 5818 5819 5820 5821 5822 5823 5825 5827 5829 5830 5832 5833 5835
5808 5810 5811 5812 5813 5813 5814 5814 5814 5814 5815 5815 5814 5814 5814 5813 5812 5812 5811 5810 5810 5810 5809 5809 5808 5808 5807 5807 5807 5808 5808 5809 5809 5810 5810 5811 5812 5813 5813 5814 5815 5817 5819 5820 5822 5824 5825 5827 5829
5807 5808 5809 5810 5810 5810 5811 5811 5811 5810 5810 5810 5809 5809 5808 5807 5806 5805 5805 5804 5803 5803 5803 5802 5802 5802 5801 5800 5801 5801 5801 5802 5803 5803 5803 5804 5805 5806 5806 5807 5808 5810 5811 5813 5815 5817 5818 5820 5822
5805 5806 5807 5807 5807 5807 5808 5807 5807 5806 5806 5805 5804 5803 5802 5802 5801 5799 5799 5798 5797 5797 5797 5796 5796 5796 5795 5794 5794 5794 5794 5795 5796 5796 5797 5797 5798 5798 5799 5800 5801 5803 5804 5806 5808 5810 5811 5812 5814
5803 5804 5804 5804 5804 5804 5803 5803 5803 5802 5801 5801 5799 5798 5797 5796 5795 5793 5792 5791 5791 5790 5790 5790 5790 5790 5789 5789 5788 5788 5788 5788 5789 5789 5789 5790 5791 5792 5792 5793 5794 5796 5797 5799 5800 5802 5804 5805 5807
5801 5801 5801 5801 5801 5801 5800 5799 5799 5798 5797 5796 5794 5793 5791 5790 5789 5787 5786 5785 5784 5784 5784 5784 5784 5783 5783 5782 5781 5781 5781 5782 5782 5782 5782 5783 5784 5785 5786 5786 5787 5788 5789 5791 5793 5794 5796 5798 5799
5798 5799 5799 5798 5798 5797 5796 5795 5795 5794 5792 5791 5790 5788 5786 5785 5783 5782 5780 5779 5778 5778 5777 5777 5777 5777 5776 5775 5775 5774 5775 5775 5776 5776 5776 5776 5777 5777 5778 5779 5780 5781 5782 5783 5785 5787 5788 5790 5791
5795 5796 5796 5795 5794 5794 5793 5791 5792 5790 5788 5786 5785 5783 5781 5780 5779 5777 5775 5774 5773 5772 5771 5771 5771 5770 5769 5768 5768 5767 5768 5768 5768 5768 5769 5769 5769 5770 5771 5771 5772 5773 5773 5775 5777 5778 5780 5782 5783
5792 5792 5792 5792 5790 5790 5789 5789 5788 5786 5784 5783 5781 5779 5777 5775 5774 5773 5771 5770 5768 5767 5766 5765 5765 5764 5763 5761 5761 5761 5761 5761 5760 5760 5761 5761 5762 5762 5763 5764 5765 5765 5766 5767 5769 5770 5772 5773 5775
5790 5789 5789 5788 5787 5786 5786 5785 5784 5782 5780 5779 5777 5775 5773 5771 5770 5768 5767 5765 5763 5762 5760 5759 5758 5757 5756 5755 5754 5753 5753 5753 5752 5753 5753 5754 5754 5755 5755 5756 5757 5758 5759 5760 5761 5762 5763 5765 5767
5787 5787 5786 5785 5784 5783 5782 5784 5781 5779 5777 5775 5773 5771 5769 5767 5766 5764 5762 5760 5758 5756 5754 5753 5752 5750 5749 5748 5747 5746 5745 5745 5744 5745 5745 5746 5746 5747 5747 5748 5749 5750 5751 5752 5753 5754 5756 5757 5758
5783 5783 5783 5783 5781 5780 5779 5782 5777 5775 5773 5771 5769 5767 5765 5763 5761 5759 5756 5754 5752 5750 5748 5747 5745 5743 5742 5741 5740 5739 5738 5737 5737 5737 5737 5737 5737 5738 5739 5740 5741 5743 5744 5745 5746 5747 5748 5750 5751